Flag for Poland Weather past 2 weeks in Poznan, Poland

36 °F

Passing clouds.

Feels Like: 33 °F
Forecast: 29 / 38 °F
Wind: 3 mph from Southwest

Location: Poznan Airport

Current Time: Nov 26, 2015 at 2:12:15 AM

Latest Report: Nov 26, 2015 at 1:30 AM

Visibility: N/A

Pressure: 29.74 "Hg

Humidity: 81%

Dew point: 30 °F

Location of PoznanLocation

Historic Weather in Poznan — Graph


Poznan temperature yesterday

Maximum temperature yesterday: 36 °F (at 1:30 PM)
Minimum temperature yesterday: 28 °F (at 12:30 AM)
Average temperature yesterday: 32 °F

Past Weeks' High & Low Weather Summary

High61 °F (Nov 11, 1:30 PM)100% (Nov 13, 12:30 AM)30.30 "Hg (Nov 13, 12:30 AM)
Low25 °F (Nov 23, 7:00 AM)55% (Nov 19, 12:00 PM)29.33 "Hg (Nov 21, 5:00 AM)
Average44 °F84%29.83 "Hg
* Reported Nov 11 1:00 AM — Nov 26 1:00 AM, Poznan, Weather by CustomWeather, © 2015

Note: Actual official high and low records may vary slightly from our data, if they occured in-between our weather recording intervals... More about our weather records


Poznan weather history for previous 24 hours

Time TempWeatherWind HumidityBarometerVisibility
1:00 AM
Thu, Nov 26
36 °FPassing clouds.5 mph81%29.74 "HgN/A
12:30 AM36 °FPassing clouds.5 mph81%29.74 "HgN/A
12:00 AM36 °FPassing clouds.3 mph81%29.71 "HgN/A
11:30 PM
Wed, Nov 25
36 °FPassing clouds.5 mph81%29.74 "HgN/A
11:00 PM36 °FPassing clouds.5 mph75%29.71 "HgN/A
10:30 PM36 °FPartly cloudy.3 mph75%29.71 "HgN/A
10:00 PM36 °FPassing clouds.3 mph75%29.71 "HgN/A
9:30 PM36 °FPassing clouds.3 mph75%29.71 "HgN/A
9:00 PM36 °FPassing clouds.5 mph75%29.71 "HgN/A
8:30 PM36 °FPassing clouds.5 mph75%29.71 "HgN/A
8:00 PM36 °FOvercast.5 mph75%29.71 "HgN/A
7:30 PM36 °FOvercast.5 mph75%29.71 "HgN/A
7:00 PM34 °FOvercast.5 mph81%29.71 "HgN/A
6:30 PM34 °FOvercast.5 mph81%29.71 "HgN/A
6:00 PM34 °FOvercast.5 mph81%29.71 "HgN/A
5:30 PM34 °FLight snow. Overcast.6 mph81%29.71 "HgN/A
5:00 PM34 °FPassing clouds.6 mph81%29.71 "HgN/A
4:30 PM34 °FPassing clouds.6 mph81%29.71 "HgN/A
4:00 PM34 °FPassing clouds.6 mph75%29.71 "HgN/A
3:30 PM36 °FLight snow. Partly sunny.7 mph70%29.71 "HgN/A
3:00 PM36 °FScattered clouds.6 mph70%29.71 "HgN/A
2:30 PM36 °FPartly sunny.7 mph70%29.71 "HgN/A
2:00 PM36 °FPassing clouds.6 mph70%29.71 "HgN/A
1:30 PM36 °FScattered clouds.7 mph70%29.74 "HgN/A
1:00 PM34 °FScattered clouds.9 mph75%29.74 "HgN/A
12:30 PM34 °FScattered clouds.8 mph75%29.74 "HgN/A
12:00 PM34 °FSunny.7 mph75%29.74 "Hg10 mi
11:30 AM34 °FPassing clouds.7 mph70%29.77 "HgN/A
11:00 AM32 °FSunny.7 mph75%29.77 "Hg10 mi
10:30 AM32 °FSunny.7 mph75%29.77 "Hg10 mi
10:00 AM32 °FSunny.8 mph75%29.77 "Hg10 mi
9:30 AM30 °FSunny.9 mph80%29.77 "Hg10 mi
9:00 AM30 °FSunny.9 mph80%29.77 "Hg10 mi
8:00 AM30 °FSunny.6 mph80%29.80 "Hg10 mi
7:00 AM28 °FClear.8 mph80%29.80 "Hg10 mi
6:30 AM28 °FClear.7 mph86%29.83 "Hg10 mi
6:00 AM28 °FClear.8 mph80%29.83 "Hg10 mi
5:30 AM28 °FClear.8 mph80%29.83 "Hg10 mi
5:00 AM28 °FClear.7 mph80%29.86 "Hg10 mi
4:30 AM28 °FClear.6 mph80%29.86 "Hg10 mi
4:00 AM28 °FClear.7 mph80%29.86 "Hg10 mi
3:30 AM28 °FClear.9 mph80%29.86 "Hg10 mi
3:00 AM28 °FClear.8 mph80%29.89 "Hg10 mi
2:30 AM28 °FClear.7 mph86%29.89 "Hg10 mi
2:00 AM28 °FClear.7 mph86%29.92 "Hg10 mi
Weather by CustomWeather, © 2015

See weather overviewHow to use our weather pages